Location: West Sayville
(40.7279°N, 73.0976°W)
Time: 05:22:26
(UTC+00:00)

Meteor 2-10 Rocket - Pass Details

Date: 29 October 2020
Orbit: 734 x 885 km, 81.2° (Epoch: 29 November)

Event Time Altitude Azimuth Distance (km) Brightness Sun altitude
Rises 22:49:41 0° 176° (S) 3,310 6.8 -11.5°
Reaches altitude 10° 22:52:08 10° 171° (S) 2,360 6.0 -12.0°
Maximum altitude 22:57:18 55° 95° (E) 931 3.6 -13.0°
Drops below altitude 10° 23:02:18 10° 19° (NNE) 2,289 5.7 -13.9°
Sets 23:04:39 0° 15° (NNE) 3,202 6.5 -14.3°
